Terug naar catalogus

COSMOS 1275 DEB

LostPO
NORAD 42132·DEBRIS·🇷🇺 Russia

Gelanceerd Jun 4, 1981 vanaf Plesetsk Cosmodrome

Loading…

Volgende Passages (komende 24 uur)

TLE

VerouderdSource: Space-Track

Epoch: Mar 22, 2024, 17:54 UTC

1 42132U 81053QU  24082.74633424  .00002118  00000-0  23367-2 0  9993
2 42132  83.1473  92.1714 0139328 317.6894  41.3575 13.67478621 17488

Volg COSMOS 1275 DEB in realtime met AllMySat

Download on the App Store